This is the latest recevied weather packets stored in our database for station/object F5OZP-13. If no packets are shown the sender has not sent any weather packets the latest 1 day(s).
| Time | Temp. | Humidity | Pressure | Rain* | Wind** | Luminosity | Snow |
|---|---|---|---|---|---|---|---|
| 1778088894 | 17.22° C | 99% | 1015.4 hPa | - | - | 0 W/m² | - |
| 1778088586 | 16.67° C | 99% | 1015.4 hPa | - | - | 0 W/m² | - |
| 1778085812 | 18.33° C | 99% | 1015.4 hPa | - | - | 0 W/m² | - |
| 1778085504 | 18.33° C | 99% | 1015.4 hPa | - | - | 0 W/m² | - |
| 1778085196 | 18.33° C | 99% | 1015.3 hPa | - | - | 0 W/m² | - |
| 1778084888 | 18.89° C | 99% | 1015.2 hPa | - | - | 0 W/m² | - |
| 1778083963 | 20° C | 99% | 1015.2 hPa | - | - | 0 W/m² | - |
| 1778081811 | 18.33° C | 99% | 1015.4 hPa | - | - | 0 W/m² | - |
| 1778080578 | 18.33° C | 99% | 1015.5 hPa | - | - | 11 W/m² | - |
| 1778080270 | 16.67° C | 99% | 1015.5 hPa | - | - | 0 W/m² | - |
| 1778079653 | 16.67° C | 99% | 1015.6 hPa | - | - | 0 W/m² | - |
| 1778079045 | 17.22° C | 99% | 1015.5 hPa | - | - | 0 W/m² | - |
| 1778077196 | 18.33° C | 99% | 1015.6 hPa | - | - | 0 W/m² | - |
| 1778076880 | 16.67° C | 99% | 1015.5 hPa | - | - | 1 W/m² | - |
| 1778076576 | 17.22° C | 99% | 1015.6 hPa | - | - | 0 W/m² | - |
| 1778075960 | 17.78° C | 99% | 1015.5 hPa | - | - | 0 W/m² | - |
| 1778075652 | 17.78° C | 99% | 1015.6 hPa | - | - | 0 W/m² | - |
| 1778075352 | 18.33° C | 99% | 1015.6 hPa | - | - | 3 W/m² | - |
| 1778073803 | 17.22° C | 99% | 1015.5 hPa | - | - | 0 W/m² | - |
| 1778073503 | 17.78° C | 99% | 1015.4 hPa | - | - | 0 W/m² | - |
| 1778072267 | 16.11° C | 99% | 1015.3 hPa | - | - | 9 W/m² | - |
| 1778071959 | 14.44° C | 99% | 1015.3 hPa | - | - | 1 W/m² | - |
| 1778070726 | 15° C | 99% | 1015.3 hPa | - | - | 0 W/m² | - |
| 1778067341 | 16.67° C | 99% | 1014.9 hPa | - | - | 2 W/m² | - |
| 1778067033 | 16.67° C | 99% | 1014.9 hPa | - | - | 0 W/m² | - |
* Rain since midnight (hover to see other rain measurements)
** Current wind speed in m/s (hover to see current wind gust speed)